When you browse on this site, cookies collect data to enhance your experience and personalize the content and advertising you see.
Visit our Privacy Policy to learn more. By continuing to use the site, you agree to this use of cookies and data.
  • In Austria
  • List of Countries
  • For 7 days
  • Water Temperature
  • Weather Map
  • News
  • Weather Widgets
  • user-avatar
    Login

    Hourly Weather Canillo

    Today, 6 June, Saturday

    Time Temperature Precipitation Wind Pressure Humidity
    00:00 +6°C° 0 mm 0 mps 615 mmHg 94%
    01:00 +6°C° 0 mm 0 mps 615 mmHg 94%
    02:00 +6°C° 0 mm 0 mps 614 mmHg 94%
    03:00 +6°C° 0 mm 0 mps 614 mmHg 94%
    04:00 +7°C° 0 mm 0 mps 615 mmHg 91%
    05:00 +8°C° 0 mm 0 mps 615 mmHg 89%
    06:00 +9°C° 0 mm 0 mps 615 mmHg 86%
    07:00 +12°C° 0 mm 1 mps 616 mmHg 79%
    08:00 +13°C° 0 mm 1 mps 617 mmHg 71%
    09:00 +15°C° 0 mm 2 mps 617 mmHg 64%
    10:00 +15°C° 0.3 mm 2 mps 617 mmHg 67%
    11:00 +15°C° 0.3 mm 2 mps 617 mmHg 70%
    12:00 +15°C° 0.3 mm 2 mps 617 mmHg 73%
    13:00 +14°C° 0.9 mm 2 mps 616 mmHg 77%
    14:00 +14°C° 0.9 mm 2 mps 616 mmHg 81%
    15:00 +13°C° 0.9 mm 2 mps 615 mmHg 85%
    16:00 +13°C° 0.9 mm 1 mps 615 mmHg 86%
    17:00 +12°C° 0.9 mm 1 mps 614 mmHg 87%
    18:00 +12°C° 0.9 mm 1 mps 614 mmHg 89%
    19:00 +11°C° 0.7 mm 1 mps 613 mmHg 91%
    20:00 +10°C° 0.7 mm 1 mps 613 mmHg 94%
    21:00 +7°C° 0.7 mm 0 mps 613 mmHg 96%
    22:00 +9°C° 1.4 mm 1 mps 613 mmHg 97%
    23:00 +9°C° 1.4 mm 1 mps 613 mmHg 97%

    Tomorrow, 7 June, Sunday

    Time Temperature Precipitation Wind Pressure Humidity
    00:00 +9°C° 1.4 mm 1 mps 613 mmHg 98%
    01:00 +8°C° 0.6 mm 1 mps 613 mmHg 97%
    02:00 +8°C° 0.6 mm 1 mps 612 mmHg 97%
    03:00 +8°C° 0.6 mm 1 mps 612 mmHg 97%
    04:00 +8°C° 0.5 mm 1 mps 612 mmHg 96%
    05:00 +8°C° 0.5 mm 1 mps 613 mmHg 95%
    06:00 +8°C° 0.5 mm 1 mps 613 mmHg 95%
    07:00 +9°C° 0.8 mm 1 mps 613 mmHg 94%
    08:00 +9°C° 0.8 mm 1 mps 614 mmHg 93%
    09:00 +9°C° 0.8 mm 1 mps 614 mmHg 91%
    10:00 +8°C° 2.1 mm 1 mps 614 mmHg 93%
    11:00 +7°C° 2.1 mm 1 mps 613 mmHg 94%
    12:00 +6°C° 2.1 mm 1 mps 613 mmHg 96%
    13:00 +7°C° 0.4 mm 1 mps 613 mmHg 94%
    14:00 +7°C° 0.4 mm 1 mps 613 mmHg 93%
    15:00 +7°C° 0.4 mm 1 mps 614 mmHg 92%
    16:00 +7°C° 0.5 mm 1 mps 613 mmHg 92%
    17:00 +7°C° 0.5 mm 1 mps 613 mmHg 93%
    18:00 +6°C° 0.5 mm 1 mps 613 mmHg 93%
    19:00 +6°C° 1.4 mm 1 mps 613 mmHg 94%
    20:00 +5°C° 1.4 mm 1 mps 613 mmHg 94%
    21:00 +4°C° 1.4 mm 1 mps 613 mmHg 95%
    22:00 +4°C° 0.8 mm 1 mps 613 mmHg 95%
    23:00 +4°C° 0.8 mm 1 mps 613 mmHg 94%

    Day after tomorrow, 8 June, Monday

    Time Temperature Precipitation Wind Pressure Humidity
    00:00 +4°C° 0.8 mm 1 mps 613 mmHg 94%
    01:00 +4°C° 0.3 mm 1 mps 613 mmHg 95%
    02:00 +4°C° 0.3 mm 1 mps 613 mmHg 96%
    03:00 +4°C° 0.3 mm 1 mps 613 mmHg 96%
    04:00 +4°C° 0.1 mm 1 mps 613 mmHg 96%
    05:00 +4°C° 0.1 mm 1 mps 613 mmHg 96%
    06:00 +4°C° 0.1 mm 1 mps 613 mmHg 96%
    07:00 +5°C° 0.1 mm 1 mps 614 mmHg 94%
    08:00 +5°C° 0.1 mm 1 mps 614 mmHg 93%
    09:00 +6°C° 0.1 mm 1 mps 615 mmHg 91%
    10:00 +7°C° 0.2 mm 1 mps 615 mmHg 88%
    11:00 +8°C° 0.2 mm 1 mps 615 mmHg 84%
    12:00 +9°C° 0.2 mm 1 mps 615 mmHg 81%
    13:00 +7°C° 0.5 mm 2 mps 615 mmHg 82%
    14:00 +7°C° 0.5 mm 2 mps 615 mmHg 84%
    15:00 +7°C° 0.5 mm 2 mps 614 mmHg 86%
    16:00 +6°C° 1 mm 2 mps 614 mmHg 88%
    17:00 +5°C° 1 mm 2 mps 614 mmHg 90%
    18:00 +5°C° 1 mm 1 mps 614 mmHg 92%
    19:00 +4°C° 0.2 mm 2 mps 614 mmHg 93%
    20:00 +3°C° 0.2 mm 2 mps 614 mmHg 94%
    21:00 +2°C° 0.2 mm 2 mps 614 mmHg 95%
    22:00 +2°C° 0 mm 2 mps 614 mmHg 95%
    23:00 +1°C° 0 mm 2 mps 614 mmHg 94%

    9 June, Tuesday

    Time Temperature Precipitation Wind Pressure Humidity
    00:00 +1°C° 0 mm 2 mps 614 mmHg 94%
    01:00 +1°C° 0 mm 2 mps 614 mmHg 93%
    02:00 +1°C° 0 mm 2 mps 614 mmHg 93%
    03:00 +1°C° 0 mm 2 mps 614 mmHg 93%
    04:00 +2°C° 0 mm 2 mps 614 mmHg 92%
    05:00 +3°C° 0 mm 2 mps 615 mmHg 91%
    06:00 +4°C° 0 mm 2 mps 615 mmHg 91%
    07:00 +5°C° 0.1 mm 2 mps 616 mmHg 85%
    08:00 +6°C° 0.1 mm 2 mps 616 mmHg 80%
    09:00 +8°C° 0.1 mm 2 mps 617 mmHg 74%
    10:00 +8°C° 0.3 mm 2 mps 617 mmHg 73%
    11:00 +9°C° 0.3 mm 2 mps 617 mmHg 72%
    12:00 +9°C° 0.3 mm 2 mps 618 mmHg 71%
    13:00 +9°C° 0.7 mm 2 mps 617 mmHg 73%
    14:00 +9°C° 0.7 mm 2 mps 617 mmHg 75%
    15:00 +9°C° 0.7 mm 2 mps 617 mmHg 77%
    16:00 +9°C° 0.6 mm 2 mps 617 mmHg 79%
    17:00 +8°C° 0.6 mm 2 mps 617 mmHg 82%
    18:00 +7°C° 0.6 mm 2 mps 617 mmHg 84%
    19:00 +6°C° 0 mm 2 mps 617 mmHg 86%
    20:00 +5°C° 0 mm 2 mps 616 mmHg 89%
    21:00 +3°C° 0 mm 2 mps 616 mmHg 91%
    22:00 +3°C° 0 mm 2 mps 616 mmHg 92%
    23:00 +3°C° 0 mm 2 mps 616 mmHg 92%

    10 June, Wednesday

    Time Temperature Precipitation Wind Pressure Humidity
    00:00 +2°C° 0 mm 2 mps 616 mmHg 93%
    01:00 +3°C° 0 mm 2 mps 616 mmHg 93%
    02:00 +3°C° 0 mm 2 mps 616 mmHg 94%
    03:00 +3°C° 0 mm 2 mps 616 mmHg 94%
    04:00 +4°C° 0 mm 2 mps 617 mmHg 93%
    05:00 +4°C° 0 mm 2 mps 617 mmHg 92%
    06:00 +5°C° 0 mm 2 mps 617 mmHg 91%
    07:00 +6°C° 0 mm 2 mps 618 mmHg 82%
    08:00 +8°C° 0 mm 2 mps 619 mmHg 74%
    09:00 +10°C° 0 mm 2 mps 620 mmHg 65%
    10:00 +10°C° 0.1 mm 2 mps 620 mmHg 64%
    11:00 +12°C° 0.1 mm 2 mps 620 mmHg 64%
    12:00 +12°C° 0.1 mm 2 mps 620 mmHg 63%
    13:00 +12°C° 0.5 mm 2 mps 620 mmHg 68%
    14:00 +10°C° 0.5 mm 2 mps 619 mmHg 74%
    15:00 +10°C° 0.5 mm 2 mps 619 mmHg 79%
    16:00 +9°C° 0.5 mm 2 mps 619 mmHg 82%
    17:00 +9°C° 0.5 mm 2 mps 618 mmHg 86%
    18:00 +8°C° 0.5 mm 2 mps 618 mmHg 89%
    19:00 +7°C° 0.1 mm 2 mps 618 mmHg 91%
    20:00 +6°C° 0.1 mm 2 mps 618 mmHg 93%
    21:00 +5°C° 0.1 mm 2 mps 618 mmHg 95%
    22:00 +5°C° 0 mm 2 mps 618 mmHg 94%
    23:00 +4°C° 0 mm 2 mps 618 mmHg 94%

    11 June, Thursday

    Time Temperature Precipitation Wind Pressure Humidity
    00:00 +4°C° 0 mm 2 mps 617 mmHg 93%
    01:00 +4°C° 0 mm 2 mps 617 mmHg 93%
    02:00 +4°C° 0 mm 2 mps 617 mmHg 93%
    03:00 +4°C° 0 mm 2 mps 617 mmHg 94%
    04:00 +5°C° 0 mm 2 mps 617 mmHg 93%
    05:00 +5°C° 0 mm 2 mps 617 mmHg 92%
    06:00 +6°C° 0 mm 2 mps 618 mmHg 91%
    07:00 +7°C° 0.3 mm 2 mps 618 mmHg 88%
    08:00 +8°C° 0.3 mm 2 mps 618 mmHg 85%
    09:00 +9°C° 0.3 mm 1 mps 619 mmHg 81%
    10:00 +9°C° 0.4 mm 2 mps 618 mmHg 82%
    11:00 +9°C° 0.4 mm 2 mps 618 mmHg 82%
    12:00 +9°C° 0.4 mm 2 mps 618 mmHg 82%
    13:00 +9°C° 0.2 mm 2 mps 618 mmHg 81%
    14:00 +10°C° 0.2 mm 1 mps 617 mmHg 79%
    15:00 +11°C° 0.2 mm 1 mps 617 mmHg 78%
    16:00 +11°C° 0.1 mm 1 mps 617 mmHg 78%
    17:00 +11°C° 0.1 mm 1 mps 617 mmHg 79%
    18:00 +11°C° 0.1 mm 1 mps 617 mmHg 79%
    19:00 +10°C° 0 mm 1 mps 617 mmHg 84%
    20:00 +8°C° 0 mm 1 mps 616 mmHg 89%
    21:00 +7°C° 0 mm 1 mps 616 mmHg 93%
    22:00 +6°C° 0 mm 2 mps 615 mmHg 93%
    23:00 +5°C° 0 mm 2 mps 615 mmHg 93%
    Show more